Total_Precipitation_Accumulation
2.15 1.75 2.93 2.92 2.64 2.32 2.12 2.17 2.27 2.28 2.31 2.20 2.07 1.87 1.73 1.62 1.43 1.33 1.26 1.18 1.16 1.24 1.48 1.64 1.52 1.46 1.27 1.20 1.23 1.26 1.25 1.18 1.18 1.09 0.99 0.97 0.98 1.10 1.30 1.43 1.67 2.04 1.65
1.48 1.42 2.54 2.85 2.64 2.41 2.32 2.29 2.24 2.27 2.31 2.14 1.96 1.82 1.64 1.47 1.37 1.33 1.24 1.21 1.15 1.13 1.24 1.43 1.54 1.54 1.40 1.35 1.43 1.45 1.37 1.26 1.32 1.27 1.30 1.34 1.18 1.18 1.16 1.32 1.72 1.99 1.53
1.27 1.26 1.92 2.67 2.58 2.35 2.31 2.27 2.21 2.19 2.14 1.92 1.78 1.62 1.48 1.32 1.25 1.26 1.29 1.27 1.20 1.10 1.13 1.30 1.50 1.57 1.55 1.57 1.56 1.54 1.49 1.46 1.41 1.39 1.74 2.19 1.72 1.39 1.36 1.34 1.39 1.41 1.41
1.05 1.09 1.45 2.16 2.19 2.13 2.10 2.03 1.99 1.86 1.74 1.75 1.75 1.56 1.43 1.31 1.28 1.32 1.34 1.26 1.21 1.11 1.14 1.25 1.36 1.43 1.46 1.52 1.50 1.47 1.46 1.52 1.57 1.47 1.77 2.16 2.13 1.75 1.57 1.53 1.37 1.38 1.51
0.88 1.05 1.58 2.08 2.03 2.02 1.97 1.79 1.79 1.66 1.54 1.52 1.55 1.46 1.46 1.35 1.26 1.24 1.29 1.30 1.28 1.21 1.17 1.22 1.27 1.33 1.41 1.45 1.41 1.40 1.42 1.60 1.63 1.38 1.52 1.88 2.34 2.01 1.64 1.60 1.52 1.54 1.60
1.00 1.04 1.37 1.80 1.82 1.82 1.74 1.66 1.65 1.55 1.53 1.44 1.36 1.36 1.40 1.36 1.30 1.23 1.31 1.27 1.22 1.25 1.29 1.31 1.35 1.43 1.42 1.39 1.37 1.45 1.53 1.54 1.41 1.47 1.63 1.88 2.17 1.96 1.53 1.41 1.53 1.65 1.74
0.90 0.88 1.09 1.60 1.65 1.63 1.60 1.60 1.64 1.58 1.52 1.39 1.31 1.35 1.47 1.41 1.34 1.27 1.34 1.30 1.24 1.21 1.27 1.29 1.36 1.41 1.34 1.34 1.35 1.35 1.46 1.45 1.40 1.55 1.64 1.85 1.87 1.82 1.50 1.37 1.55 1.64 1.73
1.00 0.91 1.01 1.56 1.69 1.58 1.57 1.52 1.57 1.62 1.56 1.42 1.32 1.29 1.35 1.34 1.26 1.25 1.23 1.29 1.27 1.23 1.26 1.29 1.31 1.35 1.23 1.20 1.18 1.21 1.35 1.26 1.16 1.32 1.52 1.82 1.97 1.84 1.44 1.32 1.37 1.52 1.67
1.32 1.24 1.27 1.43 1.49 1.58 1.56 1.47 1.64 1.75 1.64 1.44 1.29 1.24 1.19 1.21 1.19 1.17 1.17 1.27 1.27 1.24 1.24 1.27 1.29 1.33 1.24 1.14 1.10 1.22 1.36 1.26 1.10 1.26 1.28 1.71 2.08 1.89 1.54 1.33 1.30 1.48 1.60
1.26 1.23 1.27 1.38 1.38 1.39 1.44 1.60 1.77 2.09 1.98 1.60 1.35 1.18 1.12 1.06 1.08 1.18 1.15 1.21 1.29 1.33 1.35 1.36 1.39 1.36 1.33 1.22 1.20 1.31 1.31 1.05 1.03 1.04 1.27 1.57 2.13 1.95 1.55 1.33 1.23 1.27 1.34
0.97 1.02 1.12 1.20 1.23 1.30 1.27 1.46 1.82 2.17 2.21 1.82 1.48 1.33 1.09 0.79 0.79 1.01 1.17 1.33 1.45 1.51 1.58 1.61 1.61 1.52 1.39 1.25 1.28 1.33 1.07 0.84 1.06 1.14 1.36 1.73 2.02 1.93 1.56 1.29 1.16 1.18 1.15
0.76 0.72 0.76 0.80 0.91 0.98 1.00 1.27 1.55 1.61 1.81 1.54 1.46 1.33 1.16 1.09 1.02 0.88 1.00 1.35 1.59 1.60 1.64 1.69 1.71 1.50 1.17 0.95 1.05 1.10 0.86 0.83 0.96 1.06 1.30 1.87 2.19 2.05 1.62 1.36 1.26 1.21 1.11
0.68 0.66 0.61 0.62 0.68 0.81 0.93 1.12 1.31 1.46 1.61 1.59 1.53 1.47 1.48 1.45 1.10 0.96 1.03 1.15 1.30 1.36 1.29 1.37 1.35 1.13 0.95 0.88 0.98 0.89 0.76 0.78 0.88 0.99 1.36 1.96 2.35 2.21 1.73 1.41 1.38 1.33 1.27
0.59 0.70 0.65 0.51 0.53 0.61 0.70 0.89 1.06 1.26 1.44 1.47 1.27 1.19 1.33 1.37 1.19 1.05 1.19 1.25 1.30 1.32 1.38 1.39 1.31 1.15 0.93 0.87 0.92 0.92 0.82 0.83 0.88 0.95 1.25 1.62 2.08 2.24 2.03 1.72 1.65 1.55 1.54
0.59 0.68 0.71 0.62 0.56 0.59 0.65 0.73 0.77 1.05 1.21 1.33 1.37 1.15 1.27 1.31 1.26 1.13 1.08 1.27 1.25 1.28 1.32 1.40 1.42 1.31 1.20 1.08 1.04 0.96 0.99 0.92 0.88 0.85 1.08 1.23 1.49 1.95 2.18 2.15 2.09 1.85 1.73
0.55 0.64 0.67 0.69 0.67 0.67 0.68 0.69 0.67 0.73 0.81 0.90 0.85 0.81 1.00 1.13 1.15 1.14 1.01 1.08 1.18 1.32 1.52 1.60 1.46 1.40 1.33 1.28 1.26 1.18 1.13 1.04 0.97 0.86 1.01 1.09 1.04 1.25 1.67 2.17 2.42 2.20 2.01
0.52 0.59 0.65 0.71 0.76 0.77 0.78 0.83 0.79 0.73 0.75 0.73 0.68 0.68 0.78 0.90 0.99 1.10 1.10 1.09 1.12 1.32 1.57 1.75 1.63 1.52 1.36 1.36 1.34 1.32 1.21 1.18 1.08 0.98 1.08 1.21 1.04 0.99 1.31 1.86 2.35 2.46 2.30
0.50 0.49 0.52 0.55 0.63 0.67 0.73 0.79 0.88 0.88 0.86 0.82 0.83 0.78 0.73 0.86 0.99 1.12 1.18 1.14 1.13 1.32 1.57 1.80 1.87 1.84 1.73 1.63 1.53 1.44 1.37 1.46 1.30 1.17 1.19 1.28 1.38 1.23 1.22 1.43 1.82 2.19 2.34
0.44 0.38 0.39 0.43 0.45 0.48 0.53 0.62 0.75 0.83 0.89 0.95 0.95 0.95 0.95 1.00 1.03 1.15 1.33 1.36 1.35 1.46 1.57 1.62 1.75 1.76 1.80 1.79 1.60 1.55 1.47 1.57 1.59 1.45 1.50 1.52 1.56 1.53 1.38 1.21 1.33 1.51 1.92
0.36 0.36 0.37 0.40 0.38 0.36 0.40 0.51 0.64 0.71 0.77 0.95 1.01 1.05 1.33 1.45 1.25 1.21 1.35 1.36 1.41 1.60 1.67 1.79 2.00 1.93 1.82 1.91 1.73 1.63 1.59 1.58 1.56 1.66 1.75 1.71 1.66 1.55 1.54 1.35 1.39 1.29 1.51
0.23 0.21 0.27 0.31 0.37 0.36 0.32 0.37 0.51 0.63 0.75 0.88 1.05 1.10 1.32 1.44 1.36 1.37 1.38 1.40 1.44 1.53 1.60 1.79 2.15 2.17 1.98 1.87 2.06 2.04 1.94 1.74 1.65 1.68 1.71 1.81 1.81 1.65 1.63 1.65 1.53 1.36 1.25
0.21 0.16 0.18 0.21 0.30 0.37 0.39 0.45 0.58 0.77 0.89 0.99 1.14 1.20 1.29 1.32 1.33 1.25 1.41 1.51 1.48 1.62 1.70 1.88 2.17 2.38 2.14 1.95 2.29 2.75 2.52 2.22 1.88 1.66 1.64 1.57 1.69 1.70 1.58 1.45 1.38 1.31 1.21
0.15 0.12 0.15 0.23 0.36 0.53 0.68 0.92 1.17 1.46 1.60 1.50 1.37 1.44 1.53 1.62 1.58 1.51 1.59 1.72 1.64 1.69 1.80 1.85 1.94 2.37 2.51 2.26 2.22 2.80 2.69 2.48 2.43 1.91 1.52 1.37 1.55 1.67 1.67 1.53 1.42 1.43 1.37
0.19 0.25 0.34 0.45 0.61 0.78 0.98 1.20 1.46 1.71 1.90 1.91 1.93 1.97 1.95 1.90 1.79 1.67 1.68 1.74 1.74 1.81 1.79 1.67 1.83 2.25 2.71 2.73 2.50 2.31 2.19 2.18 2.37 2.24 1.67 1.40 1.47 1.58 1.73 1.60 1.53 1.55 1.53
0.36 0.49 0.59 0.81 0.97 1.11 1.17 1.26 1.48 1.58 1.66 1.78 1.92 1.99 2.00 1.92 1.80 1.65 1.59 1.67 1.73 1.81 1.81 1.87 2.06 2.35 2.63 2.88 2.84 2.58 2.28 2.05 1.71 1.90 1.89 1.68 1.45 1.37 1.43 1.51 1.61 1.61 1.57
0.65 0.88 1.00 1.10 1.20 1.19 1.17 1.19 1.31 1.46 1.55 1.65 1.81 1.87 1.82 1.69 1.65 1.58 1.55 1.54 1.51 1.58 1.68 1.88 2.14 2.28 2.46 2.69 2.75 2.48 2.29 2.17 1.97 1.82 1.68 1.74 1.72 1.44 1.31 1.28 1.37 1.50 1.50